• In Belgium
  • List of Countries
  • For 7 days
  • Water Temperature
  • Satellite Maps
  • Weather Map
  • Weather Widgets
  • user-avatar
    Login

    Hourly Weather Gold Coast

    Today, 22 August, Tuesday

    Time Temperature Precipitation Wind Pressure Humidity
    00:00 +14°C° 0.1 mm 4 mps 760 mmHg 84%
    01:00 +14°C° 0.1 mm 4 mps 760 mmHg 83%
    02:00 +14°C° 0 mm 4 mps 760 mmHg 84%
    03:00 +14°C° 0 mm 4 mps 760 mmHg 86%
    04:00 +14°C° 0 mm 4 mps 759 mmHg 88%
    05:00 +14°C° 0 mm 4 mps 760 mmHg 88%
    06:00 +14°C° 0 mm 4 mps 760 mmHg 87%
    07:00 +14°C° 0 mm 4 mps 760 mmHg 87%
    08:00 +16°C° 0 mm 5 mps 760 mmHg 78%
    09:00 +20°C° 0 mm 5 mps 760 mmHg 68%
    10:00 +22°C° 0 mm 5 mps 760 mmHg 58%
    11:00 +23°C° 0 mm 5 mps 759 mmHg 52%
    12:00 +26°C° 0 mm 5 mps 759 mmHg 46%
    13:00 +27°C° 0 mm 5 mps 758 mmHg 40%
    14:00 +26°C° 0 mm 5 mps 758 mmHg 43%
    15:00 +26°C° 0 mm 5 mps 758 mmHg 46%
    16:00 +24°C° 0 mm 6 mps 758 mmHg 49%
    17:00 +22°C° 0.2 mm 6 mps 758 mmHg 60%
    18:00 +20°C° 0.2 mm 6 mps 758 mmHg 71%
    19:00 +17°C° 0.2 mm 6 mps 759 mmHg 83%
    20:00 +17°C° 0.1 mm 5 mps 759 mmHg 83%
    21:00 +16°C° 0.1 mm 5 mps 760 mmHg 84%
    22:00 +15°C° 0.1 mm 5 mps 760 mmHg 85%
    23:00 +14°C° 0 mm 5 mps 760 mmHg 85%

    Tomorrow, 23 August, Wednesday

    Time Temperature Precipitation Wind Pressure Humidity
    00:00 +14°C° 0 mm 4 mps 760 mmHg 85%
    01:00 +13°C° 0 mm 4 mps 760 mmHg 84%
    02:00 +12°C° 0 mm 3 mps 760 mmHg 85%
    03:00 +12°C° 0 mm 3 mps 760 mmHg 85%
    04:00 +11°C° 0 mm 3 mps 760 mmHg 86%
    05:00 +12°C° 0 mm 3 mps 760 mmHg 85%
    06:00 +12°C° 0 mm 3 mps 761 mmHg 85%
    07:00 +12°C° 0 mm 3 mps 761 mmHg 85%
    08:00 +16°C° 0 mm 2 mps 761 mmHg 74%
    09:00 +20°C° 0 mm 2 mps 761 mmHg 64%
    10:00 +24°C° 0 mm 1 mps 761 mmHg 54%
    11:00 +26°C° 0 mm 2 mps 760 mmHg 48%
    12:00 +27°C° 0 mm 2 mps 759 mmHg 42%
    13:00 +28°C° 0 mm 2 mps 759 mmHg 35%
    14:00 +27°C° 0 mm 2 mps 758 mmHg 38%
    15:00 +27°C° 0 mm 2 mps 758 mmHg 40%
    16:00 +26°C° 0 mm 3 mps 758 mmHg 42%
    17:00 +24°C° 0 mm 3 mps 758 mmHg 57%
    18:00 +20°C° 0 mm 2 mps 758 mmHg 73%
    19:00 +17°C° 0 mm 2 mps 759 mmHg 88%
    20:00 +17°C° 0 mm 2 mps 759 mmHg 90%
    21:00 +17°C° 0 mm 2 mps 759 mmHg 93%
    22:00 +17°C° 0 mm 2 mps 759 mmHg 95%
    23:00 +16°C° 0.1 mm 2 mps 759 mmHg 95%

    Day after tomorrow, 24 August, Thursday

    Time Temperature Precipitation Wind Pressure Humidity
    00:00 +16°C° 0.1 mm 2 mps 758 mmHg 95%
    01:00 +16°C° 0.1 mm 2 mps 758 mmHg 96%
    02:00 +15°C° 0 mm 2 mps 758 mmHg 95%
    03:00 +14°C° 0 mm 3 mps 758 mmHg 95%
    04:00 +14°C° 0 mm 3 mps 757 mmHg 95%
    05:00 +14°C° 0 mm 3 mps 757 mmHg 91%
    06:00 +14°C° 0 mm 3 mps 758 mmHg 88%
    07:00 +14°C° 0 mm 3 mps 758 mmHg 85%
    08:00 +18°C° 0 mm 3 mps 758 mmHg 68%
    09:00 +22°C° 0 mm 3 mps 758 mmHg 51%
    10:00 +26°C° 0 mm 3 mps 758 mmHg 34%
    11:00 +27°C° 0 mm 3 mps 757 mmHg 31%
    12:00 +28°C° 0 mm 3 mps 756 mmHg 27%
    13:00 +29°C° 0 mm 2 mps 755 mmHg 24%
    14:00 +28°C° 0 mm 3 mps 755 mmHg 29%
    15:00 +27°C° 0 mm 3 mps 755 mmHg 34%
    16:00 +26°C° 0 mm 4 mps 754 mmHg 39%
    17:00 +22°C° 0.4 mm 4 mps 755 mmHg 52%
    18:00 +20°C° 0.4 mm 3 mps 756 mmHg 66%
    19:00 +17°C° 0.4 mm 3 mps 756 mmHg 79%
    20:00 +15°C° 0.2 mm 4 mps 757 mmHg 82%
    21:00 +15°C° 0.2 mm 4 mps 757 mmHg 86%
    22:00 +14°C° 0.2 mm 5 mps 757 mmHg 89%
    23:00 +14°C° 0.1 mm 5 mps 757 mmHg 89%

    25 August, Friday

    Time Temperature Precipitation Wind Pressure Humidity
    00:00 +14°C° 0.1 mm 6 mps 757 mmHg 90%
    01:00 +13°C° 0.1 mm 6 mps 757 mmHg 90%
    02:00 +13°C° 0 mm 6 mps 757 mmHg 90%
    03:00 +11°C° 0 mm 6 mps 757 mmHg 90%
    04:00 +11°C° 0 mm 6 mps 757 mmHg 89%
    05:00 +11°C° 0 mm 6 mps 758 mmHg 87%
    06:00 +11°C° 0 mm 6 mps 758 mmHg 85%
    07:00 +11°C° 0 mm 6 mps 759 mmHg 83%
    08:00 +14°C° 0 mm 6 mps 759 mmHg 72%
    09:00 +16°C° 0 mm 6 mps 759 mmHg 61%
    10:00 +19°C° 0 mm 6 mps 759 mmHg 50%
    11:00 +20°C° 0.1 mm 6 mps 759 mmHg 46%
    12:00 +21°C° 0.1 mm 6 mps 758 mmHg 41%
    13:00 +22°C° 0.1 mm 6 mps 757 mmHg 37%
    14:00 +21°C° 0.1 mm 6 mps 758 mmHg 39%
    15:00 +21°C° 0.1 mm 6 mps 758 mmHg 42%
    16:00 +20°C° 0.1 mm 6 mps 758 mmHg 45%
    17:00 +17°C° 0.1 mm 6 mps 758 mmHg 54%
    18:00 +15°C° 0.1 mm 7 mps 759 mmHg 63%
    19:00 +14°C° 0.1 mm 7 mps 760 mmHg 72%
    20:00 +12°C° 0 mm 7 mps 760 mmHg 72%
    21:00 +12°C° 0 mm 7 mps 761 mmHg 73%
    22:00 +12°C° 0 mm 7 mps 761 mmHg 74%
    23:00 +11°C° 0 mm 7 mps 761 mmHg 73%

    26 August, Saturday

    Time Temperature Precipitation Wind Pressure Humidity
    00:00 +11°C° 0 mm 7 mps 761 mmHg 71%
    01:00 +10°C° 0 mm 7 mps 761 mmHg 70%
    02:00 +10°C° 0 mm 7 mps 761 mmHg 71%
    03:00 +10°C° 0 mm 7 mps 761 mmHg 73%
    04:00 +9°C° 0 mm 7 mps 761 mmHg 74%
    05:00 +10°C° 0 mm 7 mps 762 mmHg 74%
    06:00 +10°C° 0 mm 6 mps 762 mmHg 74%
    07:00 +10°C° 0 mm 6 mps 763 mmHg 74%
    08:00 +13°C° 0 mm 6 mps 763 mmHg 67%
    09:00 +15°C° 0 mm 6 mps 763 mmHg 60%
    10:00 +19°C° 0 mm 6 mps 763 mmHg 52%
    11:00 +20°C° 0 mm 6 mps 762 mmHg 48%
    12:00 +21°C° 0 mm 6 mps 762 mmHg 43%
    13:00 +22°C° 0 mm 6 mps 761 mmHg 39%
    14:00 +22°C° 0 mm 6 mps 761 mmHg 41%
    15:00 +21°C° 0 mm 6 mps 761 mmHg 43%
    16:00 +21°C° 0 mm 7 mps 761 mmHg 45%
    17:00 +19°C° 0 mm 6 mps 762 mmHg 54%
    18:00 +16°C° 0 mm 6 mps 762 mmHg 63%
    19:00 +14°C° 0 mm 5 mps 763 mmHg 72%
    20:00 +14°C° 0 mm 5 mps 763 mmHg 77%
    21:00 +13°C° 0 mm 5 mps 763 mmHg 81%
    22:00 +12°C° 0 mm 4 mps 763 mmHg 85%
    23:00 +12°C° 0.1 mm 4 mps 763 mmHg 87%

    27 August, Sunday

    Time Temperature Precipitation Wind Pressure Humidity
    00:00 +12°C° 0.1 mm 4 mps 763 mmHg 89%
    01:00 +12°C° 0.1 mm 4 mps 763 mmHg 90%
    02:00 +11°C° 0.2 mm 4 mps 763 mmHg 90%
    03:00 +10°C° 0.2 mm 5 mps 763 mmHg 90%
    04:00 +10°C° 0.2 mm 5 mps 763 mmHg 90%
    05:00 +10°C° 0.2 mm 5 mps 763 mmHg 88%
    06:00 +12°C° 0.2 mm 5 mps 764 mmHg 86%
    07:00 +12°C° 0.2 mm 5 mps 764 mmHg 84%
    08:00 +14°C° 0.2 mm 5 mps 764 mmHg 74%
    09:00 +17°C° 0.2 mm 6 mps 764 mmHg 64%
    10:00 +20°C° 0.2 mm 6 mps 764 mmHg 54%
    11:00 +21°C° 0.1 mm 6 mps 763 mmHg 50%
    12:00 +22°C° 0.1 mm 6 mps 762 mmHg 46%
    13:00 +23°C° 0.1 mm 6 mps 762 mmHg 42%
    14:00 +23°C° 0.1 mm 6 mps 762 mmHg 46%
    15:00 +22°C° 0.1 mm 6 mps 762 mmHg 50%
    16:00 +21°C° 0.1 mm 6 mps 761 mmHg 54%
    17:00 +19°C° 0.1 mm 6 mps 762 mmHg 62%
    18:00 +17°C° 0.1 mm 5 mps 762 mmHg 70%
    19:00 +15°C° 0.1 mm 5 mps 763 mmHg 77%
    20:00 +15°C° 0 mm 4 mps 763 mmHg 81%
    21:00 +14°C° 0 mm 4 mps 763 mmHg 84%
    22:00 +13°C° 0 mm 4 mps 763 mmHg 88%
    23:00 +13°C° 0 mm 3 mps 763 mmHg 89%
    Show more